STARLINK-4691, 53588

Orbit data source: Space-Track

STARLINK-4691, 53588 is a payload satellite owned by SpaceX/Seattle (US) in LEO that was launched on Sun, 28 Aug 2022 UTC via an FALCON 9 launch vehicle from the Air Force Eastern Test Range (AFETR). Payload-class satellites include a variety of spacecraft equipped with specific instruments for various scientific and technological missions. These include communications satellites like Starlink; space stations such as the ISS; scientific satellites like the Hubble; Earth observation satellites from companies like Planet Labs, Umbra, and HawkEye 360; GPS; miniature CubeSats for education and research; and military/defense satellites.

Loading next visibility...
Identifier
53588, 2022-104A
Orbit
LEO
Country
Flag of USUS
Related business
Manufacturer
SpaceX/Seattle
Mission
Operational Commercial Communications
Bus & Motor
STARLINK, Unknown motor
Mass
300 kg wet, ~290 kg dry
Launch date (UTC)
2022-08-28 (3 years ago)
Launch vehicle
FALCON 9
Launch site
Air Force Eastern Test Range (AFETR)
Object type
Payload
Rocket body
Debris
Shape & HBR
Box + 1 Pan, 10.1 m
Radar Cross Section
13.562 m², Large (>1 m²)

Expand to show TLE details & history
Last TLE update: 19 hours ago

TLE from 19 hours ago
0 STARLINK-4691
1 53588U 22104A   25296.58811015  .00000436  00000-0  45514-4 0  9997
2 53588  53.2156 139.8409 0001266  94.5812 265.5325 15.08834643175396
Epoch: 2025-10-23T14:06Z
TLE epoch observation values (Epoch: 2025-10-23T14:06:52.716Z)
Latitude
-0.00003°
Longitude
-104.12398°
Altitude
540.725 km
Speed
7.593 km/s
True Right ascension
09h 19m 21s
True Declination
0° 00' 00"
Sunlit
Object was in daylight at epoch
Visualization orbit readout
Latitude
Unknown
Longitude
Unknown
Altitude
Unknown
Speed
Unknown
Apparent Right ascension
Unknown
Apparent Declination
Unknown
Sunlit
N/A
Visualization observer readout
Local Sidereal Time
04:22:25
Azimuth
Unknown
Elevation
Unknown
Doppler factor
Unknown
Orbital elements
Apogee altitude
540.881 km
Perigee altitude
539.129 km
Semi-major axis
6,918.142 km
Eccentricity
0.00013
Inclination
53.2156°
RAAN
139.8409°
Arg. of periapsis
94.5812°
True anomaly
265.51804°
Mean anomaly
265.5325°
Eccentric anomaly
265.52527°
Mean motion
3.77189 °/min
Orbital period
95.44 mins
BSTAR
0.000045514
Loading maneuver chart data...
Computing Atmospheric mass density...
Loading historical data...
Loading historical data...
Loading historical data...
Loading historical data...
Loading historical data...
Loading historical data...
Loading historical data...

Documentation

Showing up to 5 results
|